Location: *
(50.8512°N, 5.6907°E)
Time: 03:53:55
(UTC+00:00)

SL-16 R/B - Pass Details

Date: 09 April 2020
Orbit: 842 x 846 km, 71.0° (Epoch: 06 June)

Event Time Altitude Azimuth Distance (km) Brightness Sun altitude
Rises 21:27:43 0° 332° (NNW) 3,415 6.7 -24.7°
Reaches altitude 10° 21:30:23 10° 341° (NNW) 2,477 5.6 -25.0°
Maximum altitude 21:35:35 36° 47° (NE) 1,328 3.2 -25.4°
Enters shadow 21:36:45 32° 72° (ENE) 1,407 3.2 -25.5°
